Regional Weather Roundup
Issued by NWS

Home | Current Version | Previous Version | Text Only | Print | Product List | Glossary On
Versions: 1 2 3 4 5 6 7 8 9 10 11 12 13 14 15 16 17 18 19 20 21 22 23 24 25 26 27 28 29 30 31 32 33 34 35 36 37 38 39 40 41 42 43 44 45 46 47 48
000
ASUS43 KMPX 130510
RWRMN
WEATHER ROUNDUP FOR MINNESOTA
NATIONAL WEATHER SERVICE TWIN CITIES/CHANHASSEN MN
1200 AM CDT THU AUG 13 2020


NOTE: "FAIR" INDICATES FEW OR NO CLOUDS BELOW 12,000 FEET WITH NO
SIGNIFICANT WEATHER AND/OR OBSTRUCTIONS TO VISIBILITY. N/A MEANS
CURRENT SKY AND/OR WEATHER CONDITIONS ARE NOT AVAILABLE.

MNZ060>063-068>070-130600-
   Twin Cities Metro

CITY           SKY/WX    TMP DP  RH WIND       PRES   REMARKS
TWIN CITIES    MOCLDY    68  64  87 SE8       30.01S
ST PAUL        PTCLDY    68  63  84 SE6       30.02S
CRYSTAL        CLOUDY    67  62  84 E6        30.00S
BLAINE         MOCLDY    66  64  94 E5        30.02S
LAKEVILLE      MOCLDY    68  66  94 CALM      30.02S
EDEN PRAIRIE   CLOUDY    68  64  87 SE6       29.99S
SOUTH ST PAUL  MOCLDY    67  64  88 SE3       30.02R
LAKE ELMO      MOCLDY    63  63 100 CALM      30.04S
$$
MNZ001>005-007-008-013>017-022>024-027-028-130600-
   Northwest Minnesota

CITY           SKY/WX    TMP DP  RH WIND       PRES   REMARKS
BEMIDJI        CLOUDY    64  61  90 SE12      30.02R
HALLOCK        PTCLDY    66  64  94 SE9       29.94F
ROSEAU         CLEAR     66 N/A N/A SE5       30.00R
THIEF RVR FALL CLEAR     65  61  87 E8        29.99R
CROOKSTON      CLEAR     64  63  94 SE7       29.96R
FOSSTON        CLEAR     63  57  82 SE12G20   29.99R
DETROIT LAKES    N/A     64  61  88 SE13      29.99S
MOORHEAD       PTCLDY    70  59  68 SE8       29.93S
PARK RAPIDS    CLOUDY    64  58  80 SE10      30.02S
MAHNOMEN       FAIR      64  61  88 SE13G20   29.97S
$$
MNZ006-009>011-018-025>026-130600-
   North Central Minnesota

CITY           SKY/WX    TMP DP  RH WIND       PRES   REMARKS
BAUDETTE       CLEAR     63  61  93 SE7       30.03R
FLAG ISLAND      N/A     72  64  78 S7        30.01R
INTL FALLS     CLEAR     61  58  90 SE3       30.04S
WASKISH          N/A     63  57  82 E5        30.03R
BIG FORK       CLEAR     61  55  82 S5        30.10F
GRAND RAPIDS   CLEAR     59  56  89 SE7       30.08F
CRANE LAKE     CLEAR     55  55 100 CALM      30.10R
ORR            CLEAR     61  55  82 CALM      30.06S
COOK           CLEAR     61  55  82 CALM      30.08S
WALKER         CLOUDY    63  59  89 SE8       30.03S
$$
MNZ012-019>021-037-130600-
   Northeast Minnesota

CITY           SKY/WX    TMP DP  RH WIND       PRES   REMARKS
DULUTH         PTCLDY    61  57  87 SE7       30.09S
ELY            CLEAR     61  55  82 CALM      30.11S
HIBBING        CLEAR     53  52  96 SE3       30.09R
EVELETH        CLEAR     56  54  95 CALM      30.11R
DULUTH HARBOR  CLOUDY    63  57  82 CALM      30.09R
TWO HARBORS    CLEAR     55  50  82 CALM      30.10R
SILVER BAY       N/A     55  54  94 CALM      30.11R
GRAND MARAIS     N/A     61  56  83 CALM      30.08S
G MARAIS ARPRT PTCLDY    55  52  88 CALM      30.13S
$$
MNZ029>031-032-039>041-046>048-054>057-064-130600-
   West Central Minnesota

CITY           SKY/WX    TMP DP  RH WIND       PRES   REMARKS
FERGUS FALLS   PTCLDY    68  63  83 E14       29.94S
WHEATON        CLEAR     64  61  88 E5        29.93S
MORRIS         CLEAR     66  66 100 SE12      29.95R
ELBOW LAKE     FAIR      65  64  96 SE13      29.95S
WADENA         CLOUDY    63  63 100 E8        30.00R
GLENWOOD         N/A     63  63 100 E12       29.99R
APPLETON       CLEAR     66  63  88 E10       29.93R
BENSON         CLEAR     66  63  88 SE8       29.95R
ORTONVILLE     CLEAR     66  64  94 SE12      29.92R
MADISON        CLEAR     70  68  94 E8        29.93R
WILLMAR        FAIR      68  63  83 E10       29.99S
$$
MNZ033>034-036-042>043-049>051-058-059-130600-
   Central Minnesota

CITY           SKY/WX    TMP DP  RH WIND       PRES   REMARKS
ST CLOUD       CLOUDY    63  60  90 E7        30.01R
SAUK CENTRE    CLOUDY    62  61  97 E7        29.99S
PAYNESVILLE    CLOUDY    65  64  94 E8        29.99S
AITKIN         PTCLDY    57  54  88 CALM      30.05R
PINE RIVER     CLOUDY    61  55  82 SE10      30.07R
BRAINERD       CLOUDY    65  60  84 VRB5      30.04R
STAPLES          N/A     63  59  88 E7        30.02R
LONG PRAIRIE   CLOUDY    61  59  94 E7        30.01S
LITTLE FALLS   CLOUDY   N/A N/A N/A E3        30.02R
CAMP RIPLEY    CLOUDY    64  60  87 E7        30.03R
LITCHFIELD     CLOUDY    70  66  88 E10       29.99S
BUFFALO        CLOUDY    65  62  88 MISG      30.01S
MAPLE LAKE       N/A     66  64  93 E6        30.02R
HUTCHINSON     CLOUDY    67  66  94 E8        29.99S
$$
MNZ037-044-045-052-053-130600-
   East Central Minnesota

CITY           SKY/WX    TMP DP  RH WIND       PRES   REMARKS
PRINCETON      CLOUDY    63  61  94 E7        30.03S
MORA           CLOUDY    59  57  94 NE3       30.07R
CAMBRIDGE      CLOUDY    64  54  68 NE5       30.03S
RUSH CITY      CLOUDY    60  58  92 CALM      30.05S
MOOSE LAKE     CLOUDY    63  59  88 CALM      30.05S
HINCKLEY       CLOUDY    61  61 100 E7        30.06S
CLOQUET        CLOUDY    61  57  88 SE3       30.09R
MCGREGOR       CLOUDY    59  57  94 E5        30.07S
$$
MNZ071>073-080-081-089-090-097-098-130600-
   Southwest Minnesota

CITY           SKY/WX    TMP DP  RH WIND       PRES   REMARKS
MONTEVIDEO     CLEAR     64  63  94 SE10      29.95R
GRANITE FALLS  CLEAR     70  68  94 E6        29.96R
CANBY          CLEAR     74  71  91 E7        29.93S
MARSHALL         N/A    N/A N/A N/A MISG        N/A
REDWOOD FALLS  MOCLDY    72  69  90 SE9       29.94S
OLIVIA         MOCLDY    66  63  88 SE8       29.95F
PIPESTONE        N/A     72  70  94 S6        29.97S
WINDOM         CLEAR     72  70  94 SE3       29.96S
WORTHINGTON    CLEAR     72  70  93 S9        29.98S
JACKSON        CLEAR     72  70  94 S7        29.98F
TRACY          CLEAR     73  66  78 S7        29.95S
SLAYTON        CLEAR     70  64  83 S7        29.98F
$$
MNZ065>067-074>077-082>085-091>093-130600-
   South Central Minnesota

CITY           SKY/WX    TMP DP  RH WIND       PRES   REMARKS
MANKATO        MOCLDY    72  70  94 SE12      30.00S
NEW ULM        CLEAR     73  70  88 SE9       29.97S
ST JAMES         N/A     70  70 100 E6        29.96F
FAIRMONT       CLEAR     72  71  97 S8        29.99R
GLENCOE        MOCLDY    66  64  93 E7        29.99S
FARIBAULT      CLOUDY    72  64  78 SE7       30.03R
OWATONNA       CLOUDY    73  66  78 SE10      30.03R
ALBERT LEA     MOCLDY    70  66  88 SE8       30.03R
$$
MNZ078>079-086>088-094>096-130600-
   Southeast Minnesota

CITY           SKY/WX    TMP DP  RH WIND       PRES   REMARKS
ROCHESTER      MOCLDY    67  62  84 SE9       30.06R
RED WING       CLOUDY    70  63  78 E3        30.02S
STANTON        CLOUDY    73  64  73 CALM      30.01R
DODGE CENTER   CLEAR     66  63  88 SE8       30.05R
WINONA         CLEAR     68  64  88 CALM      30.05S
AUSTIN         CLOUDY    70  66  88 SE5       30.05R
PRESTON        CLEAR     67  61  81 SE7       30.07R
$$
ABBREVIATIONS USED IN REMARKS
   TC - TEMPERATURES IN CELSIUS
  WCI - WIND CHILL INDEX
   HX - HEAT INDEX
  VSB - VISIBILITY
$$




USA.gov is the U.S. government's official web portal to all federal, state and local government web resources and services.